Weather observations for the past three days for
Bay Bridge Field
Imperial (Metric)
Date Time (edt) Wind (mph) Vis. (mi.) Weather Sky Cond. Temperature (ºF) Relative Humidity Wind Chill (°F) Heat Index (°F) Pressure Precipitation (in)
Air Dwpt 6 hour altimeter (in) sea level (mb) 1 hr 3 hr 6 hr
Max. Min.
16 10:25 SE 10 10.00 Fair CLR 91 76.6 63% 104 29.85 0.0
16 10:05 SE 8 10.00 Fair CLR 92.1 75 57% 103 29.85 0.0
16 09:45 S 7 10.00 Fair CLR 91.2 74.1 57% 101 29.86 0.0
16 09:25 Calm 10.00 Fair CLR 87.3 75.2 67% 97 29.86 0.0
16 09:05 SW 3 10.00 Fair CLR 87.4 75 67% 97 29.87 0.0
16 08:45 SW 8 10.00 Fair CLR 85.1 76.6 76% 95 29.87 0.0
16 08:25 SW 5 10.00 Fair CLR 86.2 75.4 70% 96 29.87 0.0
16 08:05 S 5 10.00 Fair CLR 85.3 76.5 75% 95 29.87 0.0
16 07:45 SW 5 10.00 Fair CLR 83.5 75.9 84.2 81 78% 92 29.87 0.0
16 07:25 SW 3 10.00 Fair CLR 82.8 76.6 82% 91 29.86 0.0
16 07:05 SW 5 10.00 Fair CLR 82 76.8 84% 90 29.86 0.0
16 06:45 SW 5 10.00 Fair CLR 81.7 77.2 86% 90 29.86 0.0
16 06:25 SW 6 10.00 Fair CLR 81.1 76.8 87% 88 29.85 0.0
16 06:05 SW 5 10.00 Fair CLR 81.1 76.8 87% 88 29.85 0.0
16 05:45 SW 5 10.00 Fair CLR 81.3 76.1 84% 88 29.85 0.0
16 05:25 SW 8 10.00 Fair CLR 81.5 75.7 83% 88 29.85 0.0
16 05:05 SW 7 10.00 Fair CLR 82 75.4 80% 89 29.84 0.0
16 04:45 SW 7 10.00 Fair CLR 82.4 74.5 77% 89 29.84 0.0
16 04:25 SW 9 10.00 Fair CLR 82.6 75 78% 90 29.83 0.0
16 04:05 SW 7 10.00 Fair CLR 82.9 74.7 76% 90 29.83 0.0
16 03:45 SW 7 10.00 Fair CLR 82.9 75.7 79% 91 29.83 0.0
16 03:25 SW 8 10.00 Fair CLR 83.1 75.2 77% 91 29.82 0.0
16 03:05 SW 7 10.00 Fair CLR 83.1 76.3 80% 92 29.81 0.0
16 02:45 S 6 7.00 Fair with Haze CLR 83.1 76.8 81% 92 29.81 0.0
16 02:25 SW 5 10.00 Fair CLR 83.3 76.8 81% 92 29.81 0.0
16 02:05 S 5 10.00 Fair CLR 83.7 77.2 81% 93 29.81 0.0
16 01:45 S 6 10.00 Fair CLR 83.8 77.5 90.7 83.7 81% 94 29.82 0.0
16 01:25 S 6 10.00 Fair CLR 84.2 77.9 81% 95 29.82 0.0
16 01:05 SW 5 10.00 Fair CLR 84.6 77 78% 95 29.83 0.0
16 00:45 SW 6 10.00 Fair CLR 85.3 74.8 71% 94 29.82 0.0
16 00:25 SW 7 10.00 Fair CLR 85.6 74.5 69% 94 29.83 0.0
16 00:05 SW 7 10.00 Fair CLR 86 74.3 68% 94 29.83 0.0
15 23:45 SW 7 10.00 Fair CLR 86.5 73.9 66% 95 29.83 0.0
15 23:25 SW 8 10.00 Fair CLR 86.7 73.8 65% 95 29.84 0.0
15 23:05 SW 6 10.00 Fair CLR 86.9 74.1 66% 95 29.84 0.0
15 22:45 SW 8 10.00 Fair CLR 87.1 73.9 65% 95 29.84 0.0
15 22:25 SW 7 10.00 Fair CLR 87.6 73.8 64% 96 29.85 0.0
15 22:05 SW 9 10.00 Fair CLR 88 73.9 63% 97 29.85 0.0
15 21:45 SW 10 G 22 10.00 Fair CLR 88.7 73 60% 97 29.85 0.0
15 21:25 SW 12 G 16 10.00 Fair CLR 89.1 72.7 59% 97 29.84 0.0
15 21:05 SW 10 10.00 Fair CLR 89.4 72.1 57% 97 29.83 0.0
15 20:45 SW 9 10.00 Fair CLR 89.1 73.8 61% 98 29.83 0.0
15 20:25 S 8 10.00 Fair CLR 89.2 74.5 62% 99 29.82 0.0
15 20:05 S 9 10.00 Fair CLR 90 74.8 61% 100 29.81 0.0
15 19:45 S 10 10.00 Partly Cloudy SCT110 90.7 73.2 99.3 88.2 57% 99 29.81 0.0
15 19:25 S 5 10.00 Light Rain SCT050 SCT100 SCT120 90.3 70.7 53% 96 29.82 0.0
15 19:05 S 5 10.00 Partly Cloudy SCT060 BKN075 SCT110 90.3 68.7 49% 95 29.82 0.0
15 18:45 NW 14 G 22 10.00 Thunderstorm BKN075 BKN085 BKN110 91 72.3 54% 99 29.86 0.0
15 18:25 S 9 10.00 Partly Cloudy SCT075 91.9 71.2 51% 99 29.84 0.0
15 18:05 S 8 10.00 Fair CLR 93 71.2 49% 100 29.84 0.0
15 17:45 S 8 10.00 Fair CLR 93.7 73.4 52% 103 29.83 0.0
15 17:25 S 9 G 20 10.00 Fair CLR 96.1 74.3 50% 107 29.82 0.0
15 17:05 S 8 G 20 10.00 Fair CLR 96.6 73.2 47% 107 29.83 0.0
15 16:45 S 14 G 17 10.00 Fair CLR 97 71.1 43% 105 29.83 0.0
15 16:25 S 12 10.00 Fair CLR 97.9 70 40% 105 29.84 0.0
15 16:05 S 9 10.00 Fair CLR 97.5 72 44% 107 29.86 0.0
15 15:45 SE 9 10.00 Fair CLR 97 69.1 40% 103 29.87 0.0
15 15:25 S 7 10.00 Fair CLR 97.3 69.6 41% 104 29.87 0.0
15 15:05 S 9 10.00 Fair CLR 99 70.5 40% 107 29.88 0.0
15 14:45 SE 9 10.00 Fair CLR 98.6 71.1 41% 107 29.88 0.0
15 14:25 S 10 10.00 Fair CLR 98.4 72.5 43% 108 29.89 0.0
15 14:05 S 10 10.00 Fair CLR 98.4 72.7 44% 109 29.9 0.0
15 13:45 W 3 10.00 Fair CLR 95.5 68.2 95.7 82.9 41% 101 29.9 0.0
15 13:25 Calm 10.00 Fair CLR 93.9 68.7 44% 99 29.9 0.0
15 13:05 SW 6 10.00 Fair CLR 94.1 69.4 45% 100 29.91 0.0
15 12:45 N 5 10.00 Fair CLR 94.3 70.5 46% 101 29.92 0.0
15 12:25 N 5 10.00 Fair CLR 93.6 70 46% 100 29.92 0.0
15 12:05 N 6 10.00 Fair CLR 93.2 70.5 48% 100 29.93 0.0
15 11:45 N 6 10.00 Fair CLR 92.1 71.2 51% 99 29.93 0.0
15 11:25 NW 6 10.00 Fair CLR 91.2 71.2 52% 98 29.93 0.0
15 11:05 NW 6 10.00 Fair CLR 90.7 71.4 53% 98 29.93 0.0
15 10:45 NW 5 10.00 Fair CLR 89.8 70.3 53% 95 29.94 0.0
15 10:25 NW 7 10.00 Fair CLR 88.9 72.5 59% 96 29.94 0.0
15 10:05 NW 7 10.00 Fair CLR 88 72.5 60% 95 29.94 0.0
15 09:45 NW 7 10.00 Fair CLR 87.4 72.1 61% 94 29.94 0.0
15 09:25 NW 6 10.00 Fair CLR 85.8 73.6 67% 93 29.94 0.0
15 09:05 W 5 10.00 Fair CLR 85.6 73 66% 93 29.94 0.0
15 08:45 Calm 10.00 Fair CLR 84.9 72.7 67% 91 29.94 0.0
15 08:25 W 3 10.00 Fair CLR 84.7 73.9 70% 92 29.94 0.0
15 08:05 W 6 10.00 Fair CLR 83.8 73.6 71% 91 29.94 0.0
15 07:45 W 5 10.00 Fair CLR 82.6 76.5 82.9 79.7 82% 91 29.94 0.0
15 07:25 W 5 10.00 Fair CLR 81.3 79 93% 90 29.94 0.0
15 07:05 W 7 10.00 Fair CLR 81.1 79.2 94% 90 29.94 0.0
15 06:45 W 3 10.00 Fair CLR 81.5 79.9 95% 91 29.93 0.0
15 06:25 W 3 10.00 Fair CLR 81.3 79.9 95% 91 29.92 0.0
15 06:05 W 5 10.00 Fair CLR 80.6 80.4 99% 89 29.92 0.0
15 05:45 W 5 10.00 Fair CLR 80.6 0 0% 29.92 0.0
15 05:25 S 3 10.00 Fair CLR 80.6 0 0% 29.91 0.0
15 05:05 SW 5 10.00 Fair CLR 80.6 0 0% 29.91 0.0
15 04:45 S 3 10.00 Fair CLR 80.6 80.6 100% 89 29.91 0.0
15 04:25 SW 5 10.00 Fair CLR 81.7 81.3 99% 93 29.9 0.0
15 04:05 S 6 10.00 Fair CLR 82.4 0 0% 29.9 0.0
15 03:45 SW 5 10.00 Fair CLR 82.4 0 0% 29.9 0.0
15 03:25 S 7 10.00 Fair CLR 82.4 0 0% 29.89 0.0
15 03:05 S 6 10.00 Fair CLR 82.4 0 0% 29.89 0.0
15 02:45 S 6 10.00 Fair CLR 82.4 0 0% 29.9 0.0
15 02:25 S 6 10.00 Fair CLR 82.4 0 0% 29.9 0.0
15 02:05 S 7 10.00 Fair CLR 82.4 0 0% 29.91 0.0
15 01:45 S 7 10.00 Fair CLR 82.4 0 86.5 82.8 0% 29.91 0.0
15 01:25 S 7 10.00 Fair CLR 82.4 0 0% 29.92 0.0
15 01:05 S 9 10.00 Partly Cloudy SCT110 82.4 0 0% 29.91 0.0
15 00:45 S 9 10.00 Mostly Cloudy BKN110 84.2 0 0% 29.93 0.0
15 00:25 S 9 10.00 Mostly Cloudy BKN100 84.2 0 0% 29.93 0.0
15 00:05 S 9 10.00 Partly Cloudy SCT100 82.4 0 0% 29.93 0.0
14 23:45 S 8 10.00 Fair CLR 84.2 0 0% 29.93 0.0
14 23:25 S 9 10.00 Fair CLR 84.2 0 0% 29.93 0.0
14 23:05 S 9 10.00 Fair CLR 84.2 84.2 100% 104 29.93 0.0
14 22:45 S 10 10.00 Fair CLR 83.7 82.9 98% 100 29.93 0.0
14 22:25 S 10 G 16 10.00 Fair CLR 84 81 91% 98 29.94 0.0
14 22:05 S 10 10.00 Fair CLR 84.2 79.7 86% 97 29.94 0.0
14 21:45 S 9 10.00 Fair CLR 84.6 77.2 79% 95 29.95 0.0
14 21:25 S 9 10.00 Fair CLR 84.7 77.7 80% 96 29.95 0.0
14 21:05 S 8 10.00 Fair CLR 84.9 77.7 79% 96 29.95 0.0
14 20:45 S 8 10.00 Fair CLR 85.1 77 77% 96 29.95 0.0
14 20:25 S 10 10.00 Fair CLR 85.6 76.3 74% 96 29.95 0.0
14 20:05 S 10 10.00 Fair CLR 86 76.1 72% 96 29.95 0.0
14 19:45 S 9 10.00 Fair CLR 86.5 75.9 95.7 75.6 71% 97 29.95 0.0 0.03
14 19:25 S 12 10.00 Fair CLR 87.3 74.7 66% 96 29.95 0.0
14 19:05 S 8 10.00 Fair CLR 88 74.1 64% 97 29.96 0.0
14 18:45 S 7 10.00 Fair CLR 88.3 73.2 61% 96 29.96 0.0
14 18:25 S 9 10.00 Fair CLR 88.2 71.4 58% 94 29.96 0.0
14 18:05 SE 12 10.00 Fair CLR 88.9 71.2 56% 95 29.96 0.0
14 17:45 S 9 10.00 Fair CLR 88.5 70.7 56% 94 29.95 0.0
14 17:25 S 12 10.00 Fair CLR 87.6 70.5 57% 93 29.96 0.0
14 17:05 S 12 G 22 10.00 Thunderstorm in Vicinity SCT080 86.2 70.5 60% 91 29.96 0.0
14 16:45 SE 8 10.00 Thunderstorm in Vicinity SCT070 81.3 76.1 84% 88 29.96 0.0 0.01 0.03
14 16:25 S 9 10.00 Thunderstorm in Vicinity SCT065 SCT080 SCT110 77 72.3 86% 78 29.98 0.0 0.01
14 16:05 S 13 G 28 5.00 Thunderstorm Rain in Vicinity Fog/Mist SCT048 SCT070 OVC110 75.6 74.1 95% 74 29.98 0.0 0.01
14 15:45 SW 22 G 36 7.00 Thunderstorm Light Rain and Breezy SCT048 SCT080 SCT120 81.3 65.7 59% 83 30 0.0
14 15:25 S 7 7.00 Thunderstorm in Vicinity SCT038 SCT055 SCT100 89.2 72.5 58% 97 29.97 0.0
14 15:05 S 12 10.00 Thunderstorm SCT100 90.7 72.7 56% 99 29.98 0.0
14 14:45 S 8 10.00 Fair CLR 91.2 72 53% 99 29.99 0.0
14 14:25 S 15 G 18 10.00 Fair CLR 95.2 72.7 48% 104 30 0.0
14 14:05 S 14 10.00 Fair CLR 92.3 71.4 51% 100 30.01 0.0
14 13:45 S 10 G 17 10.00 Fair CLR 95.5 71.1 95.9 81.5 45% 103 30.01 0.0
14 13:25 S 14 G 20 10.00 Fair CLR 94.5 70.7 46% 101 30.01 0.0
14 13:05 S 13 10.00 Fair CLR 94.8 71.1 46% 102 30.03 0.0
14 12:45 S 13 10.00 Fair CLR 94.8 72.1 48% 103 30.04 0.0
14 12:25 S 12 10.00 Fair CLR 95.4 70.9 45% 103 30.04 0.0
14 12:05 SE 8 10.00 Fair CLR 94.3 72 48% 103 30.05 0.0
14 11:45 S 10 10.00 Fair CLR 94.1 73.2 51% 104 30.05 0.0
14 11:25 SE 10 10.00 Fair CLR 93.7 75.6 56% 106 30.05 0.0
14 11:05 S 5 10.00 Fair CLR 92.5 74.3 55% 103 30.05 0.0
14 10:45 SW 7 10.00 Fair CLR 91.6 74.1 57% 102 30.06 0.0
14 10:25 S 6 10.00 Partly Cloudy SCT100 90 75.7 63% 101 30.06 0.0
14 10:05 W 6 10.00 Fair CLR 86.9 75.7 70% 97 30.06 0.0
14 09:45 SW 6 10.00 Fair CLR 86.7 75.9 70% 97 30.06 0.0
14 09:25 SW 6 10.00 Fair CLR 86.9 76.1 70% 97 30.06 0.0
14 09:05 SW 6 10.00 Fair CLR 86.5 77.2 74% 98 30.06 0.0
14 08:45 W 5 10.00 Fair CLR 84.6 79 83% 97 30.06 0.0
14 08:25 SW 5 10.00 Fair CLR 84.7 78.4 81% 97 30.06 0.0
14 08:05 Calm 10.00 Fair CLR 82.6 81.5 97% 96 30.06 0.0
14 07:45 W 5 10.00 Fair CLR 80.6 0 81.5 75.7 0% 30.06 0.0
14 07:25 Calm 10.00 Fair CLR 80.6 0 0% 30.06 0.0
14 07:05 Calm 10.00 Fair CLR 78.8 0 0% 30.06 0.0
14 06:45 Calm 10.00 Fair CLR 77 0 0% 30.06 0.0
14 06:25 Calm 10.00 Fair CLR 77 0 0% 30.06 0.0
14 06:05 Calm 10.00 Fair CLR 75.2 0 0% 30.05 0.0
14 05:45 Calm 10.00 Fair CLR 77 0 0% 30.06 0.0
14 05:25 Calm 10.00 Fair CLR 77 0 0% 30.06 0.0
14 05:05 Calm 10.00 Fair CLR 77 0 0% 30.06 0.0
14 04:45 Calm 10.00 Fair CLR 77 0 0% 30.06 0.0
14 04:25 Calm 10.00 Fair CLR 77 0 0% 30.06 0.0
14 04:05 Calm 10.00 Fair CLR 77 0 0% 30.06 0.0
14 03:45 Calm 10.00 Fair CLR 77 0 0% 30.06 0.0
14 03:25 Calm 10.00 Fair CLR 77 0 0% 30.06 0.0
14 03:05 Calm 10.00 Fair CLR 77 0 0% 30.06 0.0
14 02:45 Calm 10.00 Fair CLR 77 0 0% 30.06 0.0
14 02:25 Calm 10.00 Fair CLR 78.8 0 0% 30.07 0.0
14 02:05 S 3 10.00 Fair CLR 78.8 0 0% 30.07 0.0
14 01:45 S 3 10.00 Fair CLR 78.8 0 84.7 78.6 0% 30.08 0.0
14 01:25 Calm 10.00 Fair CLR 78.8 0 0% 30.08 0.0
14 01:05 S 3 10.00 Fair CLR 78.8 0 0% 30.08 0.0
14 00:45 S 3 10.00 Fair CLR 78.8 0 0% 30.08 0.0
14 00:25 Calm 10.00 Fair CLR 78.8 0 0% 30.09 0.0
14 00:05 Calm 10.00 Fair CLR 78.8 0 0% 30.09 0.0
13 23:45 S 3 10.00 Fair CLR 78.8 0 0% 30.09 0.0
13 23:25 SW 3 10.00 Fair CLR 78.8 0 0% 30.09 0.0
13 23:05 S 5 10.00 Fair CLR 78.8 0 0% 30.09 0.0
13 22:45 SE 3 10.00 Partly Cloudy SCT120 78.8 0 0% 30.09 0.0
13 22:25 S 3 10.00 Fair CLR 78.8 0 0% 30.1 0.0
13 22:05 SW 3 10.00 Fair CLR 80.6 80.6 100% 89 30.1 0.0
13 21:45 S 3 10.00 Fair CLR 80.4 80.4 100% 89 30.09 0.0
13 21:25 S 5 10.00 Fair CLR 80.6 80.6 100% 89 30.09 0.0
13 21:05 SE 5 10.00 Fair CLR 81.3 80.8 98% 91 30.08 0.0
13 20:45 SE 6 10.00 Fair CLR 81.9 80.4 95% 93 30.08 0.0
13 20:25 SE 5 10.00 Fair CLR 82.8 77.9 85% 92 30.08 0.0
13 20:05 SE 6 10.00 Fair CLR 83.8 76.1 78% 93 30.08 0.0
13 19:45 SE 9 10.00 Fair CLR 84.9 75.7 89.2 84 74% 94 30.09 0.0
13 19:25 E 7 10.00 Partly Cloudy SCT025 86 75.7 72% 96 30.08 0.0
13 19:05 SE 8 10.00 Fair CLR 87.1 75.9 70% 98 30.08 0.0
13 18:45 SE 9 10.00 Fair CLR 87.6 75.9 68% 98 30.08 0.0
13 18:25 E 7 10.00 Fair CLR 87.6 73.9 64% 96 30.08 0.0
13 18:05 E 8 10.00 Fair CLR 88.9 70.3 54% 94 30.08 0.0
13 17:45 E 3 10.00 Fair CLR 88.9 68.4 51% 93 30.07 0.0
13 17:25 N 3 10.00 Partly Cloudy SCT120 88.7 71.8 57% 95 30.07 0.0
13 17:05 N 5 10.00 Partly Cloudy SCT120 88.7 70.9 56% 95 30.07 0.0
13 16:45 N 3 10.00 Fair CLR 88.3 71.1 57% 94 30.08 0.0
13 16:25 NW 5 10.00 Fair CLR 88.3 71.4 57% 95 30.08 0.0
13 16:05 N 3 10.00 Partly Cloudy SCT095 87.6 69.6 55% 92 30.08 0.0
13 15:45 NW 5 10.00 Overcast BKN095 OVC120 87.6 70.2 56% 93 30.09 0.0
13 15:25 N 3 10.00 Mostly Cloudy BKN095 BKN120 86.4 68.4 55% 90 30.1 0.0
13 15:05 N 7 10.00 Mostly Cloudy SCT085 BKN120 86.2 70.2 59% 91 30.1 0.0
13 14:45 N 6 10.00 Mostly Cloudy BKN075 87.1 69.8 57% 92 30.1 0.0
13 14:25 NW 6 10.00 Overcast OVC075 85.6 72.7 65% 92 30.1 0.0
13 14:05 N 7 10.00 Mostly Cloudy BKN075 84.6 73.9 71% 92 30.11 0.0
13 13:45 NW 9 10.00 Fair CLR 84.2 73.2 85.1 77.2 70% 91 30.12 0.0
13 13:25 NW 8 10.00 Fair CLR 84 74.5 73% 92 30.12 0.0
13 13:05 N 8 10.00 Fair CLR 83.8 75 75% 92 30.13 0.0
13 12:45 NW 7 10.00 Partly Cloudy SCT029 SCT100 83.8 76.3 78% 93 30.13 0.0
13 12:25 NW 5 10.00 Mostly Cloudy BKN029 BKN110 83.5 77.4 82% 93 30.14 0.0
13 12:05 NW 6 10.00 Mostly Cloudy BKN110 82.9 77.2 83% 92 30.15 0.0
13 11:45 Calm 10.00 Mostly Cloudy BKN110 82.6 76.5 82% 91 30.15 0.0
13 11:25 NW 5 10.00 Overcast SCT080 OVC110 81 76.8 87% 88 30.16 0.0
13 11:05 NW 5 10.00 Overcast BKN090 OVC110 81.1 77 87% 88 30.16 0.0
13 10:45 W 5 10.00 Overcast OVC090 81.1 77 87% 88 30.16 0.0
Date Time (edt) Wind (mph) Vis. (mi.) Weather Sky Cond. Air Dwpt Max. Min. Relative Humidity Wind Chill (°F) Heat Index (°F) altimeter (in) sea level (mb) 1 hr 3 hr 6 hr
6 hour
Temperature (ºF) Pressure Precipitation (in)